Location: Napa Soda Springs
(38.3907°N, 122.2794°W)
Time: 21:13:30
(UTC+00:00)

Nadezhda 4 Rocket - Pass Details

Date: 29 October 2020
Orbit: 950 x 991 km, 82.9° (Epoch: 24 November)

Event Time Altitude Azimuth Distance (km) Brightness Sun altitude
Rises 12:01:34 0° 180° (S) 3,607 6.9 -30.2°
Reaches altitude 10° 12:04:03 10° 178° (S) 2,666 6.2 -29.7°
Maximum altitude 12:10:07 75° 95° (E) 986 4.0 -28.5°
Drops below altitude 10° 12:16:15 10° 10° (N) 2,693 6.5 -27.3°
Sets 12:18:46 0° 9° (N) 3,648 7.2 -26.8°
